[[{"header":{"parameterUnit":"m.s-1","parameterCategory":1,"la1":30.2991,"la2":30.254,"lo1":-89.0895,"lo2":-89.0444,"dy":0.0017,"dx":0.0017,"nx":28,"ny":28,"refTime":"2025-08-04T03:00:00:Z","depth":0,"parameterNumber":2,"parameterNumberName":"U-component_of_WINDS"},"data":[0,0,0,0,0,0,0,0,0,0,0,0,0,0,0,0,0,0,0,0,0,0,0,0,0,0,0,0,0,0,0,0,0,0,0,0,0,0,0,0,0,0,0,0,0,0,0,0,0,0,0,0,0,0,0,0,0,0,-2.4804,-2.4804,0,-2.4734,-2.4733,-2.4732,-2.4617,-2.4615,-2.4613,-2.4611,-2.4539,-2.4539,-2.4539,0,0,0,0,0,0,0,0,0,0,0,0,0,-2.4842,-2.4842,-2.4805,-2.4804,-2.4803,-2.4734,-2.4733,-2.4732,-2.4618,-2.4615,-2.4612,-2.461,-2.4539,-2.4539,-2.4539,0,0,0,0,0,0,0,0,0,0,0,0,0,-2.4804,-2.4842,-2.4805,-2.4737,-2.4731,-2.4734,-2.4733,-2.4732,-2.4618,-2.4615,-2.4612,-2.4609,-2.4539,-2.4539,-2.4539,-2.4602,0,0,-2.4539,-2.4539,0,0,0,0,0,0,0,0,-2.4806,-2.4803,-2.4748,-2.4742,-2.4735,-2.4681,-2.4719,-2.4688,-2.4619,-2.4661,-2.4611,-2.4607,-2.4589,-2.4584,-2.4578,-2.4599,-2.4596,-2.4539,-2.4539,-2.4539,-2.4539,0,0,0,0,0,0,0,-2.4809,-2.4805,-2.4776,-2.4748,-2.4739,-2.4711,-2.4702,-2.4713,-2.4643,-2.4657,-2.4648,-2.4642,-2.4584,-2.4578,-2.4576,-2.4595,-2.4539,-2.4539,-2.4539,-2.4539,-2.4664,-2.4668,0,0,0,0,0,0,-2.4821,-2.4808,-2.4779,-2.4774,-2.4763,-2.4713,-2.4703,-2.4701,-2.4643,-2.4631,-2.4644,-2.4637,-2.458,-2.4576,-2.4573,-2.4643,-2.4539,-2.4539,-2.4539,-2.4661,-2.4665,-2.4669,0,0,0,0,0,0,-2.4823,-2.482,-2.4782,-2.4789,-2.4782,-2.4716,-2.4715,-2.4702,-2.4695,-2.4633,-2.462,-2.4651,-2.4577,-2.4573,-2.4596,-2.4639,-2.4539,-2.4539,-2.4657,-2.4662,-2.4667,-2.4784,0,0,0,0,0,0,-2.4824,-2.4821,-2.4844,-2.479,-2.4782,-2.4806,-2.4717,-2.4703,-2.4696,-2.4685,-2.4636,-2.4625,-2.4574,-2.4596,-2.4596,-2.4637,-2.4539,-2.4653,-2.466,-2.4665,-2.4776,-2.4792,-2.4806,0,0,0,0,0,-2.4826,-2.488,-2.4846,-2.4843,-2.4809,-2.4809,-2.4804,-2.4744,-2.47,-2.4723,-2.4683,-2.4627,-2.4635,-2.46,-2.4598,-2.464,-2.465,-2.4658,-2.4665,-2.4769,-2.4789,-2.4806,0,0,0,0,0,0,-2.494,-2.4872,-2.4833,-2.4871,-2.4847,-2.4789,-2.4816,-2.4767,-2.4755,-2.4745,-2.4672,-2.4662,-2.4695,-2.467,-2.4632,-2.4698,-2.4634,-2.4641,-2.4713,-2.4732,-2.4747,-2.4752,-2.4539,0,0,0,0,0,-2.497,-2.4975,-2.4915,-2.4954,-2.4944,-2.4883,-2.488,-2.4837,-2.4808,-2.4797,-2.4759,-2.4734,-2.4731,-2.473,-2.4724,-2.4772,-2.476,-2.48,-2.4816,-2.4828,-2.4835,-2.4859,-2.4876,-2.4693,-2.4693,-2.4693,0,0,-2.5031,-2.4994,-2.5002,-2.4976,-2.4952,-2.4959,-2.4875,-2.4886,-2.489,-2.4799,-2.4818,-2.479,-2.4757,-2.4794,-2.4808,-2.4774,-2.4884,-2.4838,-2.4849,-2.4848,-2.4869,-2.4886,-2.4902,-2.4698,-2.4697,-2.4696,0,0,-2.5146,-2.5119,-2.5149,-2.5127,-2.5092,-2.5051,-2.5058,-2.5008,-2.4986,-2.5005,-2.4936,-2.4941,-2.4937,-2.4916,-2.4906,-2.5015,-2.4962,-2.5015,-2.5094,-2.5118,-2.5132,-2.5145,-2.5183,-2.5198,-2.5022,-2.5023,-2.5023,0,-2.5227,-2.5234,-2.5171,-2.5186,-2.5177,-2.5095,-2.5125,-2.5107,-2.5072,-2.5067,-2.503,-2.5023,-2.4995,-2.5026,-2.5053,-2.5047,-2.5053,-2.5019,-2.5135,-2.5147,-2.5158,-2.5194,-2.5209,-2.5029,-2.5028,-2.5028,-2.5027,0,-2.5335,-2.5342,-2.537,-2.5338,-2.5332,-2.5355,-2.5295,-2.5297,-2.5255,-2.5218,-2.5238,-2.5203,-2.5187,-2.5192,-2.515,-2.5217,-2.5197,-2.5149,-2.5082,-2.5183,-2.5215,-2.5229,-2.5039,-2.5036,-2.5034,-2.5033,0,0,-2.5518,-2.5452,-2.5463,-2.5448,-2.5404,-2.5407,-2.5427,-2.5413,-2.5416,-2.5395,-2.5409,-2.5408,-2.5364,-2.5352,-2.5307,-2.5329,-2.5418,-2.5278,-2.5276,-2.5305,-2.5488,-2.5524,-2.5541,-2.5383,-2.5386,-2.5388,-2.5491,0,-2.5623,-2.5652,-2.5596,-2.5638,-2.5644,-2.5567,-2.5584,-2.556,-2.5526,-2.5526,-2.5489,-2.549,-2.5431,-2.5423,-2.5442,-2.5403,-2.5453,-2.5395,-2.5396,-2.5396,-2.5405,-2.5558,-2.5596,-2.5695,-2.5503,-2.5505,-2.5507,0,-2.5749,-2.5734,-2.5778,-2.5732,-2.5732,-2.5748,-2.573,-2.5732,-2.5702,-2.5677,-2.5664,-2.5613,-2.5629,-2.5566,-2.5587,-2.5549,-2.5546,-2.5528,-2.553,-2.5527,-2.5457,-2.5558,-2.5725,-2.574,-2.5526,-2.5525,-2.5523,0,-2.5877,-2.5869,-2.5893,-2.5883,-2.583,-2.5843,-2.5822,-2.579,-2.5785,-2.577,-2.5766,-2.5754,-2.5747,-2.5738,-2.5685,-2.5644,-2.5713,-2.5645,-2.5692,-2.5693,-2.5708,-2.5708,-2.5876,-2.5709,-2.5709,-2.5709,-2.5708,0,-2.6,-2.6029,-2.5951,-2.5966,-2.5997,-2.5932,-2.5965,-2.5936,-2.5908,-2.5916,-2.585,-2.586,-2.5789,-2.5791,-2.5749,-2.5773,-2.5771,-2.5751,-2.5739,-2.5756,-2.5758,-2.5752,-2.5743,-2.5712,-2.5712,-2.5711,-2.571,0,-2.6148,-2.6096,-2.6118,-2.6067,-2.6055,-2.608,-2.6036,-2.6048,-2.6011,-2.6023,-2.6022,-2.5964,-2.5963,-2.591,-2.5897,-2.5869,-2.591,-2.5887,-2.592,-2.5912,-2.5962,-2.5958,-2.6131,-2.615,-2.5972,-2.5974,-2.5975,0,-2.6228,-2.6249,-2.62,-2.6201,-2.6183,-2.6186,-2.618,-2.6119,-2.6116,-2.6086,-2.6102,-2.6095,-2.6087,-2.6089,-2.6046,-2.6036,-2.6011,-2.6073,-2.6009,-2.6026,-2.6011,-2.601,-2.6012,-2.6086,-2.6088,-2.609,-2.6091,0,-2.6377,-2.6351,-2.6346,-2.6333,-2.6329,-2.6315,-2.6298,-2.6302,-2.6235,-2.6236,-2.6234,-2.6228,-2.6215,-2.621,-2.6193,-2.6171,-2.612,-2.6112,-2.6122,-2.6139,-2.6157,-2.6147,-2.5956,-2.6108,-2.6106,-2.6105,-2.6104,-2.6103,-2.6493,-2.6508,-2.6476,-2.6473,-2.6454,-2.6439,-2.6448,-2.6413,-2.641,-2.6396,-2.636,-2.6364,-2.6335,-2.6307,-2.629,-2.6292,-2.6261,-2.6276,-2.628,-2.6284,-2.6293,-2.6158,-2.6289,-2.6289,-2.6288,-2.6288,-2.6287,0,-2.6637,-2.6613,-2.6611,-2.6589,-2.6587,-2.6541,-2.6519,-2.652,-2.6525,-2.6502,-2.6496,-2.6494,-2.6489,-2.6447,-2.6437,-2.6447,-2.6423,-2.6446,-2.6444,-2.644,-2.6322,-2.6314,-2.6465,-2.6465,-2.6465,-2.6465,-2.6465,-2.6465,-2.6712,-2.6735,-2.6706,-2.6719,-2.6694,-2.6698,-2.669,-2.6676,-2.6658,-2.6659,-2.6655,-2.6627,-2.6597,-2.6584,-2.6578,-2.6565,-2.6564,-2.6595,-2.6575,-2.6465,-2.6448,-2.6432,-2.6424,-2.6596,-2.6596,-2.6692,-2.6693,-2.6694]},{"header":{"parameterUnit":"m.s-1","parameterCategory":1,"la1":30.2991,"la2":30.254,"lo1":-89.0895,"lo2":-89.0444,"dy":0.0017,"dx":0.0017,"nx":28,"ny":28,"refTime":"2025-08-04T03:00:00:Z","depth":0,"parameterNumber":3,"parameterNumberName":"V-component_of_WINDS"},"data":[0,0,0,0,0,0,0,0,0,0,0,0,0,0,0,0,0,0,0,0,0,0,0,0,0,0,0,0,0,0,0,0,0,0,0,0,0,0,0,0,0,0,0,0,0,0,0,0,0,0,0,0,0,0,0,0,0,0,-0.4075,-0.4074,0,-0.3972,-0.3971,-0.397,-0.3978,-0.3979,-0.3981,-0.3982,-0.3874,-0.387,-0.3865,0,0,0,0,0,0,0,0,0,0,0,0,0,-0.4272,-0.4269,-0.4075,-0.4073,-0.4072,-0.3972,-0.3971,-0.3969,-0.3977,-0.3979,-0.3981,-0.3983,-0.3875,-0.387,-0.3865,0,0,0,0,0,0,0,0,0,0,0,0,0,-0.418,-0.4268,-0.4075,-0.4064,-0.4062,-0.3972,-0.3971,-0.3969,-0.3977,-0.3979,-0.3982,-0.3984,-0.3877,-0.3871,-0.3864,-0.3778,0,0,-0.3844,-0.3842,0,0,0,0,0,0,0,0,-0.4185,-0.4172,-0.4067,-0.4065,-0.4062,-0.399,-0.4001,-0.3905,-0.3976,-0.4009,-0.3982,-0.3985,-0.391,-0.3901,-0.3877,-0.3772,-0.3768,-0.3844,-0.384,-0.3837,-0.3835,0,0,0,0,0,0,0,-0.4191,-0.4177,-0.4034,-0.4065,-0.4063,-0.4063,-0.4052,-0.3983,-0.3948,-0.4007,-0.4007,-0.3995,-0.391,-0.3883,-0.3874,-0.3766,-0.3844,-0.3838,-0.3834,-0.3832,-0.3581,-0.3578,0,0,0,0,0,0,-0.4201,-0.4182,-0.4037,-0.4031,-0.4131,-0.4057,-0.4045,-0.4011,-0.3949,-0.3942,-0.3993,-0.3996,-0.3893,-0.3882,-0.3871,-0.3762,-0.3837,-0.3831,-0.3827,-0.3584,-0.358,-0.3577,0,0,0,0,0,0,-0.4205,-0.4188,-0.4041,-0.4107,-0.4088,-0.4051,-0.4013,-0.4008,-0.3981,-0.3938,-0.3932,-0.3973,-0.3894,-0.388,-0.38,-0.3758,-0.3828,-0.3822,-0.3587,-0.3583,-0.3579,-0.3546,0,0,0,0,0,0,-0.4211,-0.4189,-0.4158,-0.4106,-0.4085,-0.3974,-0.401,-0.4004,-0.397,-0.3973,-0.3918,-0.3911,-0.3895,-0.3809,-0.3793,-0.3751,-0.3817,-0.359,-0.3585,-0.358,-0.355,-0.3541,-0.3533,0,0,0,0,0,-0.4218,-0.4153,-0.4156,-0.4138,-0.4044,-0.3972,-0.3959,-0.3944,-0.3967,-0.3933,-0.3905,-0.3912,-0.3766,-0.3801,-0.3783,-0.3738,-0.3593,-0.3586,-0.358,-0.3554,-0.3543,-0.3533,0,0,0,0,0,0,-0.42,-0.4146,-0.4149,-0.4065,-0.4023,-0.3973,-0.3931,-0.3933,-0.3882,-0.3886,-0.3868,-0.3856,-0.3774,-0.3748,-0.3789,-0.3648,-0.3682,-0.3672,-0.3668,-0.3657,-0.3649,-0.3656,-0.3812,0,0,0,0,0,-0.4187,-0.4134,-0.4089,-0.4019,-0.3998,-0.3968,-0.3936,-0.3927,-0.3882,-0.3864,-0.383,-0.3785,-0.3728,-0.3692,-0.3638,-0.3547,-0.3533,-0.3506,-0.3498,-0.3491,-0.3482,-0.3428,-0.3414,-0.3557,-0.3557,-0.3557,0,0,-0.4158,-0.4122,-0.409,-0.4015,-0.3981,-0.3924,-0.3953,-0.3893,-0.385,-0.3855,-0.3777,-0.375,-0.3698,-0.3611,-0.3572,-0.3587,-0.3439,-0.3483,-0.3478,-0.3472,-0.342,-0.3407,-0.3395,-0.3553,-0.3553,-0.3554,0,0,-0.4077,-0.4045,-0.3982,-0.3947,-0.3896,-0.3876,-0.386,-0.3809,-0.3792,-0.3713,-0.3715,-0.3663,-0.3567,-0.3528,-0.3497,-0.3397,-0.34,-0.338,-0.3334,-0.3281,-0.327,-0.326,-0.3221,-0.3208,-0.3371,-0.3371,-0.3371,0,-0.4047,-0.3964,-0.3949,-0.3887,-0.3853,-0.3855,-0.3789,-0.3756,-0.3689,-0.3664,-0.3683,-0.3559,-0.3525,-0.3428,-0.3403,-0.3378,-0.3358,-0.3385,-0.3273,-0.3263,-0.3253,-0.3216,-0.3202,-0.3369,-0.3369,-0.3369,-0.3369,0,-0.3928,-0.387,-0.3825,-0.3759,-0.372,-0.3657,-0.363,-0.3592,-0.3586,-0.3563,-0.3481,-0.3439,-0.3375,-0.3352,-0.3346,-0.3252,-0.3263,-0.3278,-0.3311,-0.3238,-0.3202,-0.3188,-0.3365,-0.3366,-0.3367,-0.3367,0,0,-0.3834,-0.3759,-0.3743,-0.3712,-0.3654,-0.3607,-0.3542,-0.348,-0.3445,-0.3399,-0.3342,-0.3259,-0.3271,-0.3235,-0.3224,-0.3178,-0.3098,-0.3198,-0.3197,-0.3178,-0.2988,-0.2975,-0.2959,-0.31,-0.3097,-0.3095,-0.2991,0,-0.3744,-0.363,-0.3614,-0.3513,-0.3456,-0.3456,-0.3399,-0.3356,-0.3332,-0.3279,-0.3253,-0.3193,-0.3215,-0.3193,-0.3148,-0.3117,-0.3059,-0.3125,-0.3044,-0.3041,-0.3055,-0.2941,-0.2929,-0.2832,-0.2977,-0.2975,-0.2973,0,-0.3625,-0.3573,-0.3466,-0.3413,-0.3388,-0.3338,-0.3277,-0.3228,-0.3177,-0.3163,-0.3121,-0.3115,-0.3045,-0.3082,-0.2983,-0.3028,-0.2994,-0.2974,-0.2969,-0.296,-0.3002,-0.2926,-0.2802,-0.2786,-0.2952,-0.2954,-0.2955,0,-0.3562,-0.3467,-0.339,-0.3363,-0.33,-0.3263,-0.3235,-0.3187,-0.3149,-0.3096,-0.307,-0.3009,-0.2975,-0.2927,-0.2904,-0.2934,-0.2805,-0.2841,-0.2789,-0.2789,-0.276,-0.2762,-0.2627,-0.2742,-0.2743,-0.2743,-0.2743,0,-0.3463,-0.3396,-0.336,-0.3313,-0.3237,-0.3218,-0.3143,-0.3116,-0.3072,-0.3017,-0.3014,-0.2961,-0.2935,-0.2878,-0.2859,-0.2778,-0.2764,-0.2748,-0.2743,-0.2747,-0.2748,-0.2723,-0.2728,-0.2739,-0.274,-0.2741,-0.2741,0,-0.338,-0.3354,-0.3269,-0.3215,-0.3199,-0.3146,-0.3098,-0.305,-0.3027,-0.2956,-0.2939,-0.29,-0.2833,-0.2805,-0.2723,-0.271,-0.2616,-0.2618,-0.2633,-0.2631,-0.2579,-0.2583,-0.242,-0.2396,-0.253,-0.2529,-0.2528,0,-0.3317,-0.3266,-0.3206,-0.3169,-0.3139,-0.308,-0.3041,-0.3019,-0.2978,-0.2915,-0.2874,-0.2807,-0.2751,-0.2643,-0.2607,-0.2542,-0.2541,-0.2488,-0.2531,-0.2535,-0.2536,-0.2539,-0.2532,-0.248,-0.2478,-0.2477,-0.2476,0,-0.3207,-0.3196,-0.3141,-0.3079,-0.3033,-0.2983,-0.2935,-0.2905,-0.2875,-0.2829,-0.276,-0.2717,-0.2632,-0.2564,-0.2497,-0.2465,-0.2464,-0.2463,-0.2447,-0.2449,-0.2459,-0.245,-0.2608,-0.2467,-0.2468,-0.2468,-0.2469,-0.2469,-0.313,-0.3083,-0.3033,-0.297,-0.2931,-0.2886,-0.2837,-0.2806,-0.2749,-0.2678,-0.2668,-0.2593,-0.2541,-0.2451,-0.2416,-0.2356,-0.2369,-0.2347,-0.234,-0.2334,-0.2329,-0.247,-0.2344,-0.2344,-0.2344,-0.2345,-0.2345,0,-0.3018,-0.2985,-0.2927,-0.2859,-0.2809,-0.2814,-0.2759,-0.2716,-0.2651,-0.2603,-0.2548,-0.2466,-0.24,-0.2357,-0.2289,-0.2249,-0.2246,-0.2231,-0.2233,-0.2225,-0.2323,-0.2342,-0.2234,-0.2234,-0.2234,-0.2234,-0.2234,-0.2234,-0.2953,-0.2872,-0.2855,-0.2754,-0.2721,-0.2648,-0.2616,-0.2572,-0.2533,-0.2443,-0.2387,-0.2361,-0.2313,-0.2241,-0.2179,-0.2168,-0.2142,-0.2125,-0.2114,-0.2207,-0.2218,-0.2229,-0.2247,-0.212,-0.212,-0.2021,-0.202,-0.2019]}]]